LFPNLFAT

Guest
Details From LFPN - Toussus-le-Noble
To LFAT - Le Touquet Paris Plage
Flight Number -
Tags generated
Created
Modified
Stats Distance 108 nm / 199 km
Max Altitude 7,500 ft / 2,286 m
Waypoints 3
Social Downloads 4
Likes 0
Share VATSIM

Download

Looking for another format? Having issues loading an existing format? Contact us
Advertisement - Login to hide

Notes

Basic altitude profile: - Ascent Rate: 3000ft/min - Ascent Speed: 250kts - Cruise Altitude: 11000ft - Cruise Speed: 420kts - Descent Rate: 2700ft/min - Descent Speed: 250kts Options: - Use NATs: no - Use PACOTS: no - Use low airways: no - Use high airways: yes

Route

LFPN ABSUD LFAT

ID Type Via Altitude Latitude Longitude Leg Dist Tot Dist Heading (true) Name
O LFPN APT - 0 ft / 0 m 48.75191˚ 2.10607˚ - 0 nm - Toussus-le-Noble
ABSUD FIX - 7,500 ft / 2,286 m 49.93917˚ 1.79111˚ 72 nm 72 nm 350° / 350° -
O LFAT APT - 0 ft / 0 m 50.51586˚ 1.62273˚ 35 nm 107 nm 349° / 349° Le Touquet Paris Plage

Altitude Profile

Advertisement - Login to hide

LFPN

Details ICAO LFPN (TNF)
Name Toussus-le-Noble
Region France
Timezone Europe/Paris (UTC+2.0)
Stats Elevation 537 ft / 164 m (AMSL)
Location 48.751909° 2.106072°
Runways 2
Magnetic Variation 0.579° E

METAR

LFPN 252300Z AUTO 05008KT 7000 ///CB 16/15 Q1016

Decode

TAF

Not found

Departure Runways

ID Width Length Bearing (true) Bearing (mag) Surface Threshold Offset Overrun Length
07L 98 ft / 30 m 3,670 ft / 1,119 m 71.18° 70.60° Asphalt 0 ft / 0 m 586 ft / 179 m
07R 98 ft / 30 m 3,416 ft / 1,041 m 71.16° 70.58° Asphalt 0 ft / 0 m 0 ft / 0 m
25L 98 ft / 30 m 3,416 ft / 1,041 m 251.17° 250.59° Asphalt 0 ft / 0 m 0 ft / 0 m
25R 98 ft / 30 m 3,670 ft / 1,119 m 251.19° 250.61° Asphalt 0 ft / 0 m 0 ft / 0 m

LFAT

Details ICAO LFAT (LTQ)
Name Le Touquet Paris Plage
Region France
Timezone Europe/Paris (UTC+2.0)
Stats Elevation 35 ft / 11 m (AMSL)
Location 50.515857° 1.622729°
Runways 2
Magnetic Variation 0.297° E

METAR

LFAT 252300Z AUTO 10005KT 050V140 3300 -RA BR FEW025/// BKN100/// ///TCU 16/15 Q1018

Decode

TAF

Not found

Destination Runways

ID Width Length Bearing (true) Bearing (mag) Surface Threshold Offset Overrun Length
07 120 ft / 37 m 1,949 ft / 594 m 60.65° 60.35° Asphalt 0 ft / 0 m 0 ft / 0 m
14 131 ft / 40 m 6,050 ft / 1,844 m 133.54° 133.24° Asphalt 0 ft / 0 m 0 ft / 0 m
25 120 ft / 37 m 1,949 ft / 594 m 240.65° 240.35° Asphalt 750 ft / 229 m 0 ft / 0 m
32 131 ft / 40 m 6,050 ft / 1,844 m 313.56° 313.26° Asphalt 492 ft / 150 m 0 ft / 0 m

Approach Navaids

Runway Type Ident Frequency Range Bearing (true) Bearing (mag) Slope Elevation
14 Localiser LT 110.15 MHz 27 nm / 50 km 134.00° 133.70° - 35 ft / 11 m (AMSL)
14 Glidescope LT 110.15 MHz 27 nm / 50 km 134.00° 133.70° 3.00° 35 ft / 11 m (AMSL)
14 DME LT 110.15 MHz 27 nm / 50 km - - - 35 ft / 11 m (AMSL)

Popular Alternatives